Time,TemperatureF,DewpointF,PressureIn,WindDirection,WindDirectionDegrees,WindSpeedMPH,WindSpeedGustMPH,Humidity,HourlyPrecipIn,Conditions,Clouds,dailyrainin,SoftwareType,DateUTC
2013-01-11 00:03:00,20.0,18.0,29.64,NNE,27,16.0,-999.0,92,-99.99,,,-99.99,,2013-01-11 06:03:00,
2013-01-11 00:12:00,20.0,18.0,29.64,NNE,27,16.0,-999.0,92,-99.99,,,-99.99,,2013-01-11 06:12:00,
2013-01-11 00:22:00,20.0,18.0,29.64,NNE,27,16.0,-999.0,92,-99.99,,,-99.99,,2013-01-11 06:22:00,
2013-01-11 00:32:00,20.0,18.0,29.65,NNE,19,14.0,-999.0,92,-99.99,,,-99.99,,2013-01-11 06:32:00,
2013-01-11 00:42:00,20.0,18.0,29.65,NNE,19,14.0,-999.0,92,-99.99,,,-99.99,,2013-01-11 06:42:00,
2013-01-11 00:52:00,19.0,17.0,29.66,NNE,24,11.0,-999.0,93,-99.99,,,-99.99,,2013-01-11 06:52:00,
2013-01-11 01:02:00,19.0,17.0,29.67,NNE,25,10.0,-999.0,93,-99.99,,,-99.99,,2013-01-11 07:02:00,
2013-01-11 01:12:00,19.0,17.0,29.67,NNE,25,10.0,-999.0,93,-99.99,,,-99.99,,2013-01-11 07:12:00,
2013-01-11 01:22:00,19.0,17.0,29.68,NNE,22,9.0,-999.0,93,-99.99,,,-99.99,,2013-01-11 07:22:00,
2013-01-11 01:32:00,19.0,17.0,29.68,NNE,22,9.0,-999.0,93,-99.99,,,-99.99,,2013-01-11 07:32:00,
2013-01-11 01:42:00,19.0,17.0,29.68,NNE,22,9.0,-999.0,93,-99.99,,,-99.99,,2013-01-11 07:42:00,
2013-01-11 01:52:00,19.0,17.0,29.68,NNE,22,9.0,-999.0,93,-99.99,,,-99.99,,2013-01-11 07:52:00,
2013-01-11 02:02:00,19.0,17.0,29.68,NNE,22,9.0,-999.0,93,-99.99,,,-99.99,,2013-01-11 08:02:00,
2013-01-11 02:12:00,18.0,16.0,29.69,North,360,11.0,-999.0,93,-99.99,,,-99.99,,2013-01-11 08:12:00,
2013-01-11 02:22:00,18.0,16.0,29.69,North,360,11.0,-999.0,93,-99.99,,,-99.99,,2013-01-11 08:22:00,
2013-01-11 02:32:00,18.0,16.0,29.70,NNE,13,11.0,-999.0,93,-99.99,,,-99.99,,2013-01-11 08:32:00,
2013-01-11 02:42:00,18.0,16.0,29.70,NNE,13,11.0,-999.0,93,-99.99,,,-99.99,,2013-01-11 08:42:00,
2013-01-11 02:53:00,18.0,16.0,29.70,NNE,13,11.0,-999.0,93,-99.99,,,-99.99,,2013-01-11 08:53:00,
2013-01-11 03:02:00,18.0,16.0,29.70,North,360,10.0,-999.0,93,-99.99,,,-99.99,,2013-01-11 09:02:00,
2013-01-11 03:12:00,18.0,16.0,29.70,North,360,10.0,-999.0,93,-99.99,,,-99.99,,2013-01-11 09:12:00,
2013-01-11 03:22:00,18.0,16.0,29.71,North,5,12.0,-999.0,93,-99.99,,,-99.99,,2013-01-11 09:22:00,
2013-01-11 03:32:00,17.0,15.0,29.72,NNE,15,11.0,-999.0,92,-99.99,,,-99.99,,2013-01-11 09:32:00,
2013-01-11 03:42:00,17.0,15.0,29.72,NNE,15,11.0,-999.0,92,-99.99,,,-99.99,,2013-01-11 09:42:00,
2013-01-11 03:52:00,17.0,15.0,29.71,NNE,18,11.0,-999.0,92,-99.99,,,-99.99,,2013-01-11 09:52:00,
2013-01-11 04:02:00,17.0,15.0,29.72,NNE,27,9.0,-999.0,92,-99.99,,,-99.99,,2013-01-11 10:02:00,
2013-01-11 04:12:00,17.0,15.0,29.72,NNE,27,9.0,-999.0,92,-99.99,,,-99.99,,2013-01-11 10:12:00,
2013-01-11 04:22:00,17.0,15.0,29.70,NNE,15,14.0,-999.0,92,-99.99,,,-99.99,,2013-01-11 10:22:00,
2013-01-11 04:32:00,16.0,14.0,29.70,NNE,28,13.0,-999.0,92,-99.99,,,-99.99,,2013-01-11 10:32:00,
2013-01-11 04:42:00,16.0,14.0,29.70,NNE,28,13.0,-999.0,92,-99.99,,,-99.99,,2013-01-11 10:42:00,
2013-01-11 04:52:00,16.0,14.0,29.71,NNE,13,11.0,-999.0,92,-99.99,,,-99.99,,2013-01-11 10:52:00,
2013-01-11 05:02:00,16.0,14.0,29.70,North,5,9.0,-999.0,92,-99.99,,,-99.99,,2013-01-11 11:02:00,
2013-01-11 05:12:00,16.0,14.0,29.70,North,5,9.0,-999.0,92,-99.99,,,-99.99,,2013-01-11 11:12:00,
2013-01-11 05:22:00,16.0,14.0,29.70,North,5,11.0,-999.0,92,-99.99,,,-99.99,,2013-01-11 11:22:00,
2013-01-11 05:32:00,16.0,14.0,29.70,North,5,11.0,-999.0,92,-99.99,,,-99.99,,2013-01-11 11:32:00,
2013-01-11 05:42:00,16.0,14.0,29.70,North,5,11.0,-999.0,92,-99.99,,,-99.99,,2013-01-11 11:42:00,
2013-01-11 05:53:00,16.0,14.0,29.70,North,5,12.0,-999.0,92,-99.99,,,-99.99,,2013-01-11 11:53:00,
2013-01-11 06:03:00,16.0,14.0,29.70,North,9,11.0,-999.0,92,-99.99,,,-99.99,,2013-01-11 12:03:00,
2013-01-11 06:12:00,16.0,14.0,29.70,North,9,11.0,-999.0,92,-99.99,,,-99.99,,2013-01-11 12:12:00,
2013-01-11 06:22:00,15.0,13.0,29.67,NNE,22,12.0,-999.0,92,-99.99,,,-99.99,,2013-01-11 12:22:00,
2013-01-11 06:32:00,15.0,13.0,29.67,NNE,22,12.0,-999.0,92,-99.99,,,-99.99,,2013-01-11 12:32:00,
2013-01-11 06:42:00,15.0,13.0,29.67,NNE,22,12.0,-999.0,92,-99.99,,,-99.99,,2013-01-11 12:42:00,
2013-01-11 06:53:00,15.0,13.0,29.69,North,5,11.0,-999.0,91,-99.99,,,-99.99,,2013-01-11 12:53:00,
2013-01-11 07:02:00,15.0,13.0,29.69,NNE,16,11.0,-999.0,91,-99.99,,,-99.99,,2013-01-11 13:02:00,
2013-01-11 07:13:00,15.0,13.0,29.69,NNE,16,11.0,-999.0,91,-99.99,,,-99.99,,2013-01-11 13:13:00,
2013-01-11 07:22:00,15.0,13.0,29.70,North,360,9.0,-999.0,91,-99.99,,,-99.99,,2013-01-11 13:22:00,
2013-01-11 07:33:00,15.0,13.0,29.70,North,360,9.0,-999.0,91,-99.99,,,-99.99,,2013-01-11 13:33:00,
2013-01-11 07:42:00,15.0,13.0,29.70,North,360,9.0,-999.0,91,-99.99,,,-99.99,,2013-01-11 13:42:00,
2013-01-11 07:53:00,15.0,13.0,29.70,North,360,9.0,-999.0,91,-99.99,,,-99.99,,2013-01-11 13:53:00,
2013-01-11 08:03:00,14.0,12.0,29.72,North,355,11.0,-999.0,91,-99.99,,,-99.99,,2013-01-11 14:03:00,
2013-01-11 08:12:00,14.0,12.0,29.72,North,355,11.0,-999.0,91,-99.99,,,-99.99,,2013-01-11 14:12:00,
2013-01-11 08:23:00,14.0,12.0,29.73,North,350,12.0,-999.0,91,-99.99,,,-99.99,,2013-01-11 14:23:00,
2013-01-11 08:33:00,14.0,12.0,29.73,North,355,12.0,-999.0,91,-99.99,,,-99.99,,2013-01-11 14:33:00,
2013-01-11 08:42:00,14.0,12.0,29.75,North,5,12.0,-999.0,91,-99.99,,,-99.99,,2013-01-11 14:42:00,
2013-01-11 08:53:00,14.0,12.0,29.75,North,5,12.0,-999.0,91,-99.99,,,-99.99,,2013-01-11 14:53:00,
2013-01-11 09:03:00,14.0,12.0,29.75,North,355,10.0,-999.0,91,-99.99,,,-99.99,,2013-01-11 15:03:00,
2013-01-11 09:12:00,14.0,12.0,29.75,North,355,12.0,-999.0,91,-99.99,,,-99.99,,2013-01-11 15:12:00,
2013-01-11 09:23:00,14.0,12.0,29.75,North,355,12.0,-999.0,91,-99.99,,,-99.99,,2013-01-11 15:23:00,
2013-01-11 09:32:00,13.0,11.0,29.75,North,360,12.0,-999.0,91,-99.99,,,-99.99,,2013-01-11 15:32:00,
2013-01-11 09:43:00,13.0,11.0,29.75,North,360,12.0,-999.0,91,-99.99,,,-99.99,,2013-01-11 15:43:00,
2013-01-11 09:53:00,13.0,11.0,29.75,North,349,14.0,-999.0,91,-99.99,,,-99.99,,2013-01-11 15:53:00,
2013-01-11 10:03:00,12.0,10.0,29.74,NNW,342,17.0,-999.0,91,-99.99,,,-99.99,,2013-01-11 16:03:00,
2013-01-11 10:12:00,11.0,9.0,29.75,NNW,348,19.0,-999.0,90,-99.99,,,-99.99,,2013-01-11 16:12:00,
2013-01-11 10:22:00,11.0,9.0,29.75,NNW,348,19.0,-999.0,90,-99.99,,,-99.99,,2013-01-11 16:22:00,
2013-01-11 10:33:00,11.0,9.0,29.76,North,355,17.0,-999.0,90,-99.99,,,-99.99,,2013-01-11 16:33:00,
2013-01-11 10:42:00,11.0,9.0,29.76,North,355,17.0,-999.0,90,-99.99,,,-99.99,,2013-01-11 16:42:00,
2013-01-11 10:53:00,11.0,9.0,29.76,NNW,344,17.0,-999.0,90,-99.99,,,-99.99,,2013-01-11 16:53:00,
2013-01-11 11:03:00,11.0,9.0,29.76,NNW,344,17.0,-999.0,90,-99.99,,,-99.99,,2013-01-11 17:03:00,
2013-01-11 11:12:00,11.0,9.0,29.76,NNW,344,17.0,-999.0,90,-99.99,,,-99.99,,2013-01-11 17:12:00,
2013-01-11 11:22:00,11.0,9.0,29.76,NNW,344,17.0,-999.0,90,-99.99,,,-99.99,,2013-01-11 17:22:00,
2013-01-11 11:33:00,11.0,9.0,29.79,NNW,333,17.0,-999.0,90,-99.99,,,-99.99,,2013-01-11 17:33:00,
2013-01-11 11:43:00,11.0,9.0,29.79,NNW,333,17.0,-999.0,90,-99.99,,,-99.99,,2013-01-11 17:43:00,
2013-01-11 11:53:00,11.0,9.0,29.76,NNW,348,18.0,-999.0,90,-99.99,,,-99.99,,2013-01-11 17:53:00,
2013-01-11 12:03:00,10.0,8.0,29.79,North,349,18.0,-999.0,90,-99.99,,,-99.99,,2013-01-11 18:03:00,
2013-01-11 12:12:00,10.0,8.0,29.79,North,349,18.0,-999.0,90,-99.99,,,-99.99,,2013-01-11 18:12:00,
2013-01-11 12:23:00,10.0,8.0,29.80,NNW,345,17.0,-999.0,90,-99.99,,,-99.99,,2013-01-11 18:23:00,
2013-01-11 12:33:00,10.0,8.0,29.80,NNW,345,17.0,-999.0,90,-99.99,,,-99.99,,2013-01-11 18:33:00,
2013-01-11 12:43:00,10.0,8.0,29.80,NNW,345,17.0,-999.0,90,-99.99,,,-99.99,,2013-01-11 18:43:00,
2013-01-11 12:53:00,10.0,8.0,29.80,North,360,17.0,-999.0,90,-99.99,,,-99.99,,2013-01-11 18:53:00,
2013-01-11 13:02:00,10.0,7.0,29.80,North,349,19.0,-999.0,89,-99.99,,,-99.99,,2013-01-11 19:02:00,
2013-01-11 13:12:00,10.0,7.0,29.80,North,349,19.0,-999.0,89,-99.99,,,-99.99,,2013-01-11 19:12:00,
2013-01-11 13:22:00,9.0,6.0,29.80,North,355,20.0,-999.0,89,-99.99,,,-99.99,,2013-01-11 19:22:00,
2013-01-11 13:32:00,9.0,6.0,29.80,NNW,346,18.0,-999.0,89,-99.99,,,-99.99,,2013-01-11 19:32:00,
2013-01-11 13:43:00,9.0,6.0,29.80,NNW,346,18.0,-999.0,89,-99.99,,,-99.99,,2013-01-11 19:43:00,
2013-01-11 13:53:00,9.0,6.0,29.80,North,360,19.0,-999.0,89,-99.99,,,-99.99,,2013-01-11 19:53:00,
2013-01-11 14:03:00,9.0,6.0,29.78,North,360,19.0,-999.0,89,-99.99,,,-99.99,,2013-01-11 20:03:00,
2013-01-11 14:12:00,9.0,6.0,29.78,North,360,19.0,-999.0,89,-99.99,,,-99.99,,2013-01-11 20:12:00,
2013-01-11 14:22:00,9.0,6.0,29.78,North,360,19.0,-999.0,89,-99.99,,,-99.99,,2013-01-11 20:22:00,
2013-01-11 14:33:00,9.0,6.0,29.80,North,355,21.0,-999.0,89,-99.99,,,-99.99,,2013-01-11 20:33:00,
2013-01-11 14:43:00,9.0,6.0,29.80,North,355,21.0,-999.0,89,-99.99,,,-99.99,,2013-01-11 20:43:00,
2013-01-11 14:53:00,9.0,6.0,29.80,North,355,21.0,-999.0,89,-99.99,,,-99.99,,2013-01-11 20:53:00,
2013-01-11 15:03:00,9.0,6.0,29.80,North,355,21.0,-999.0,89,-99.99,,,-99.99,,2013-01-11 21:03:00,
2013-01-11 15:12:00,9.0,6.0,29.80,North,355,21.0,-999.0,89,-99.99,,,-99.99,,2013-01-11 21:12:00,
2013-01-11 15:23:00,8.0,5.0,29.81,North,350,20.0,-999.0,89,-99.99,,,-99.99,,2013-01-11 21:23:00,
2013-01-11 15:33:00,8.0,5.0,29.81,North,350,20.0,-999.0,89,-99.99,,,-99.99,,2013-01-11 21:33:00,
2013-01-11 15:43:00,8.0,5.0,29.81,North,350,20.0,-999.0,89,-99.99,,,-99.99,,2013-01-11 21:43:00,
2013-01-11 15:53:00,8.0,5.0,29.82,North,351,24.0,-999.0,89,-99.99,,,-99.99,,2013-01-11 21:53:00,
2013-01-11 16:02:00,8.0,5.0,29.82,North,351,24.0,-999.0,89,-99.99,,,-99.99,,2013-01-11 22:02:00,
2013-01-11 16:12:00,8.0,5.0,29.82,North,351,24.0,-999.0,89,-99.99,,,-99.99,,2013-01-11 22:12:00,
2013-01-11 16:22:00,8.0,6.0,29.83,North,351,24.0,-999.0,90,-99.99,,,-99.99,,2013-01-11 22:22:00,
2013-01-11 16:33:00,8.0,5.0,29.83,North,349,24.0,-999.0,89,-99.99,,,-99.99,,2013-01-11 22:33:00,
2013-01-11 16:42:00,8.0,5.0,29.83,North,349,24.0,-999.0,89,-99.99,,,-99.99,,2013-01-11 22:42:00,
2013-01-11 16:53:00,7.0,4.0,29.84,NNW,338,24.0,-999.0,89,-99.99,,,-99.99,,2013-01-11 22:53:00,
2013-01-11 17:02:00,7.0,4.0,29.85,North,355,24.0,-999.0,89,-99.99,,,-99.99,,2013-01-11 23:02:00,
2013-01-11 17:13:00,7.0,4.0,29.85,North,355,24.0,-999.0,89,-99.99,,,-99.99,,2013-01-11 23:13:00,
2013-01-11 17:22:00,6.0,3.0,29.87,NNW,348,23.0,-999.0,89,-99.99,,,-99.99,,2013-01-11 23:22:00,
2013-01-11 17:32:00,6.0,3.0,29.87,North,350,24.0,-999.0,89,-99.99,,,-99.99,,2013-01-11 23:32:00,
2013-01-11 17:43:00,6.0,3.0,29.87,North,350,24.0,-999.0,89,-99.99,,,-99.99,,2013-01-11 23:43:00,
2013-01-11 17:53:00,6.0,3.0,29.87,North,350,24.0,-999.0,89,-99.99,,,-99.99,,2013-01-11 23:53:00,
2013-01-11 18:02:00,6.0,3.0,29.88,NNW,344,23.0,-999.0,89,-99.99,,,-99.99,,2013-01-12 00:02:00,
2013-01-11 18:12:00,5.0,2.0,29.88,NNW,342,23.0,-999.0,89,-99.99,,,-99.99,,2013-01-12 00:12:00,
2013-01-11 18:23:00,5.0,2.0,29.88,NNW,342,23.0,-999.0,89,-99.99,,,-99.99,,2013-01-12 00:23:00,
2013-01-11 18:32:00,5.0,2.0,29.89,NNW,341,26.0,-999.0,89,-99.99,,,-99.99,,2013-01-12 00:32:00,
2013-01-11 18:42:00,5.0,2.0,29.89,NNW,341,26.0,-999.0,89,-99.99,,,-99.99,,2013-01-12 00:42:00,
2013-01-11 18:53:00,5.0,2.0,29.90,NNW,338,26.0,-999.0,89,-99.99,,,-99.99,,2013-01-12 00:53:00,
2013-01-11 19:02:00,5.0,2.0,29.91,NNW,348,22.0,-999.0,89,-99.99,,,-99.99,,2013-01-12 01:02:00,
2013-01-11 19:12:00,5.0,2.0,29.91,NNW,348,22.0,-999.0,89,-99.99,,,-99.99,,2013-01-12 01:12:00,
2013-01-11 19:22:00,5.0,2.0,29.92,NNW,345,24.0,-999.0,88,-99.99,,,-99.99,,2013-01-12 01:22:00,
2013-01-11 19:32:00,4.0,1.0,29.90,NNW,347,24.0,-999.0,88,-99.99,,,-99.99,,2013-01-12 01:32:00,
2013-01-11 19:42:00,4.0,1.0,29.90,NNW,347,24.0,-999.0,88,-99.99,,,-99.99,,2013-01-12 01:42:00,
2013-01-11 19:52:00,4.0,1.0,29.91,NNW,338,25.0,-999.0,88,-99.99,,,-99.99,,2013-01-12 01:52:00,
2013-01-11 20:02:00,4.0,1.0,29.91,NNW,338,25.0,-999.0,88,-99.99,,,-99.99,,2013-01-12 02:02:00,
2013-01-11 20:12:00,4.0,1.0,29.91,NNW,338,25.0,-999.0,88,-99.99,,,-99.99,,2013-01-12 02:12:00,
2013-01-11 20:22:00,4.0,1.0,29.91,NNW,338,25.0,-999.0,88,-99.99,,,-99.99,,2013-01-12 02:22:00,
2013-01-11 20:32:00,4.0,1.0,29.93,North,351,24.0,-999.0,88,-99.99,,,-99.99,,2013-01-12 02:32:00,
2013-01-11 20:43:00,4.0,1.0,29.93,North,351,24.0,-999.0,88,-99.99,,,-99.99,,2013-01-12 02:43:00,
2013-01-11 20:53:00,3.0,0.0,29.94,NNW,342,23.0,-999.0,88,-99.99,,,-99.99,,2013-01-12 02:53:00,
2013-01-11 21:02:00,3.0,0.0,29.94,NNW,342,23.0,-999.0,88,-99.99,,,-99.99,,2013-01-12 03:02:00,
2013-01-11 21:12:00,3.0,0.0,29.94,NNW,342,23.0,-999.0,88,-99.99,,,-99.99,,2013-01-12 03:12:00,
2013-01-11 21:22:00,3.0,0.0,29.95,NNW,342,23.0,-999.0,88,-99.99,,,-99.99,,2013-01-12 03:22:00,
2013-01-11 21:32:00,3.0,0.0,29.96,NW,325,22.0,-999.0,88,-99.99,,,-99.99,,2013-01-12 03:32:00,
2013-01-11 21:43:00,3.0,0.0,29.96,NW,325,22.0,-999.0,88,-99.99,,,-99.99,,2013-01-12 03:43:00,
2013-01-11 21:53:00,3.0,0.0,29.96,NNW,327,22.0,-999.0,88,-99.99,,,-99.99,,2013-01-12 03:53:00,
2013-01-11 22:02:00,3.0,0.0,29.96,NNW,327,22.0,-999.0,88,-99.99,,,-99.99,,2013-01-12 04:02:00,
2013-01-11 22:12:00,3.0,0.0,29.96,NNW,327,22.0,-999.0,88,-99.99,,,-99.99,,2013-01-12 04:12:00,
2013-01-11 22:22:00,3.0,0.0,29.96,NNW,327,22.0,-999.0,88,-99.99,,,-99.99,,2013-01-12 04:22:00,
2013-01-11 22:32:00,3.0,0.0,29.96,NNW,327,22.0,-999.0,88,-99.99,,,-99.99,,2013-01-12 04:32:00,
2013-01-11 22:52:00,2.0,-1.0,29.97,NNW,338,25.0,-999.0,88,-99.99,,,-99.99,,2013-01-12 04:52:00,
2013-01-11 23:03:00,3.0,0.0,29.98,NNW,333,22.0,-999.0,88,-99.99,,,-99.99,,2013-01-12 05:03:00,
2013-01-11 23:12:00,3.0,0.0,29.98,NNW,333,22.0,-999.0,88,-99.99,,,-99.99,,2013-01-12 05:12:00,
2013-01-11 23:22:00,3.0,0.0,29.99,NNW,331,23.0,-999.0,88,-99.99,,,-99.99,,2013-01-12 05:22:00,
2013-01-11 23:32:00,3.0,0.0,30.00,NNW,330,23.0,-999.0,88,-99.99,,,-99.99,,2013-01-12 05:32:00,
2013-01-11 23:42:00,3.0,0.0,30.00,NNW,330,23.0,-999.0,88,-99.99,,,-99.99,,2013-01-12 05:42:00,
2013-01-11 23:52:00,3.0,0.0,30.00,NNW,329,21.0,-999.0,88,-99.99,,,-99.99,,2013-01-12 05:52:00,